THOR 5

Last updated on Thu Oct 30 2025 00:02:47 GMT+0000 (Coordinated Universal Time)

1 32487U 08006A 25302.32825029 .00000000 00000+0 00000+0 0 9999 2 32487 0.0136 243.2385 0002375 331.2670 300.8352 1.00264835 65003
UTC large
Height (km)
Speed (km/s)
/
Latitude / Longitude
Inclination (degrees)
Orbital Period (minutes)
Azimuth
Elevation
Range (km)
Doppler Factor

Next 0 passes for location: London (51.5072 / 0.1276)

Sorry there are no passes over London.